Location: Asheville, NC
(35.6000°N, 82.5500°W)
Time: 08:58:05
(UTC-05:00)

CUTE 1.7 + AOD 2 - Pass Details

Date: 10 January 2018
Orbit: 595 x 613 km, 97.6° (Epoch: 18 January)

Event Time Altitude Azimuth Distance (km) Brightness Sun altitude
Rises 19:58:11 0° 214° (SW) 2,862 ? -28.4°
Reaches altitude 10° 20:01:48 10° 247° (WSW) 1,964 ? -29.1°
Maximum altitude 20:03:20 12° 268° (W) 1,854 ? -29.4°
Drops below altitude 10° 20:04:52 10° 290° (WNW) 1,967 ? -29.7°
Sets 20:08:31 0° 322° (NW) 2,876 ? -30.5°
